Regional Weather Roundup
Issued by NWS

Home | Current Version | Previous Version | Graphics & Text | Print | Product List | Glossary On
Versions: 1 2 3 4 5 6 7 8 9 10 11 12 13 14 15 16 17 18 19 20 21 22 23 24 25 26 27 28 29 30 31 32 33 34 35 36 37 38 39 40 41 42 43 44 45 46 47 48 49 50
000
ASUS43 KFSD 301902
RWRSD

WEATHER ROUNDUP FOR SOUTH DAKOTA
NATIONAL WEATHER SERVICE SIOUX FALLS SD
200 PM CDT THU OCT 30 2014

NOTE: "FAIR" INDICATES FEW OR NO CLOUDS BELOW 12,000 FEET WITH NO
SIGNIFICANT WEATHER AND/OR OBSTRUCTIONS TO VISIBILITY.


SDZ001>005-009-010-012>017-302000-
NORTHWEST AND NORTH CENTRAL SOUTH DAKOTA

CITY           SKY/WX    TMP DP  RH WIND       PRES   REMARKS
BUFFALO          N/A     38  31  76 N3        30.31R
FAITH            N/A     39  32  76 N14       30.36S
MOBRIDGE       PTSUNNY   43  32  65 N16       30.34R
$$

SDZ012>016-024>037-041>051-057-063-072>074-302000-
SOUTHWEST AND SOUTH CENTRAL SOUTH DAKOTA

CITY           SKY/WX    TMP DP  RH WIND       PRES   REMARKS
RAPID CTY ARPT SUNNY     53  34  48 N20       30.32F
PIERRE         PTSUNNY   45  33  63 N18G25    30.33R
CUSTER         PTSUNNY   52  26  36 W7        30.32F
ELLSWORTH AFB  SUNNY     52  35  52 NE15      30.33S
PHILIP         SUNNY     49  34  56 N17G23    30.35R
PINE RIDGE     SUNNY     58  34  40 N10G17    30.32S
SPEARFISH      FAIR      52  32  46 NW9       30.35S
WINNER         FAIR      53  33  46 N22G33    30.28R
$$

SDZ004>011-016>023-039-040-302000-
NORTHEAST SOUTH DAKOTA

CITY           SKY/WX    TMP DP  RH WIND       PRES   REMARKS
ABERDEEN       CLOUDY    44  33  65 N22G28    30.30R
WATERTOWN      CLOUDY    41  37  86 N17       30.21R
SISSETON         N/A     40  35  83 N23G31    30.26R
$$

SDZ017-020-022-023-036>040-048>070-302000-
SOUTHEAST SOUTH DAKOTA

CITY           SKY/WX    TMP DP  RH WIND       PRES   REMARKS
SIOUX FALLS    CLOUDY    51  42  71 NW18      30.14R
HURON          CLOUDY    42  37  82 N21       30.26R
CHAMBERLAIN    PTSUNNY   48  35  61 N16G23    30.28R
MITCHELL       CLOUDY    45  38  76 N20       30.24R
YANKTON        SUNNY     54  37  54 NW24G30   30.17R
$$

ABBREVIATIONS USED IN REMARKS
   TC - TEMPERATURE IN CELSIUS
  WCI - WIND CHILL INDEX
   HX - HEAT INDEX
  VSB - VISIBILITY




USA.gov is the U.S. government's official web portal to all federal, state and local government web resources and services.